Location: Eaton Estates
(41.3089°N, 82.0057°W)
Time: 14:39:35
(UTC+00:00)

USA 308 - Pass Details

Date: 02 November 2021
Orbit: 565 x 570 km, 54.0° (Epoch: 04 December)

Event Time Altitude Azimuth Distance (km) Brightness Sun altitude
Exits shadow 11:24:37 - 318° (NW) 2,332 5.5 -7.4°
Reaches altitude 10° 11:26:10 10° 330° (NNW) 1,880 5.1 -7.1°
Maximum altitude 11:29:05 18° 13° (NNE) 1,452 5.0 -6.6°
Drops below altitude 10° 11:32:00 10° 57° (ENE) 1,877 6.2 -6.0°
Sets 11:34:53 0° 77° (ENE) 2,772 7.7 -5.5°
